"Pseudo-MPEC" for CEJJK82

Created 2026 Apr 16 23:35:10 UT using Find_Orb

Click here for an explanation of pseudo-MPECs

 
 Astrometry: 
     CEJJK82*1C2026 04 16.37174015 20 00.341+05 44 14.14   ~4G9Z       VNEOCPG96
     CEJJK82 1C2026 04 16.37694415 20 04.031+05 44 29.51   ~4G9Z 21.28GVNEOCPG96
     CEJJK82 1C2026 04 16.38213515 20 07.624+05 44 45.20   ~4G9Z 21.55GVNEOCPG96
     CEJJK82 1C2026 04 16.38732715 20 11.353+05 45 01.04   ~4G9Z 21.04GVNEOCPG96
     CEJJK82  C2026 04 16.41391915 20 29.940+05 46 19.53   ~4GAZ 20.7 GWNEOCPH01
     CEJJK82  C2026 04 16.41739315 20 32.435+05 46 30.08   ~4GAZ 20.7 GWNEOCPH01
     CEJJK82 1C2026 04 16.41790915 20 33.169+05 46 34.82   ~4GAK 21.12GVNEOCPV06
     CEJJK82 1C2026 04 16.41914215 20 34.058+05 46 38.71   ~4GAK 21.18GVNEOCPV06
     CEJJK82 1C2026 04 16.42037415 20 34.940+05 46 42.28   ~4GAK 21.46GVNEOCPV06
     CEJJK82 1C2026 04 16.42160515 20 35.844+05 46 46.31   ~4GAK 21.21GVNEOCPV06
     CEJJK82  C2026 04 16.42738115 20 39.631+05 47 00.73   ~4GAZ 21.0 GWNEOCPH01
     CEJJK82  C2026 04 16.43419315 20 44.562+05 47 21.71   ~4GAZ 21.0 GWNEOCPH01

Station data:
(G96) Mt. Lemmon Survey  (N32.442729 W110.788720)  US/Arizona.  Observer E.
   J. Christensen. Measurers T. Beuden, V. F. Carvajal, D. Fay, J. B.
   Fazekas, D. C. Fuls, A. R. Gibbs, A. D. Grauer, H. Gröller, J. K. Hogan,
   R. A. Kowalski, S. M. Larson, G. J. Leonard, D. Rankin, R. L. Seaman, F.
   C. Shelly, K. W. Wierzchoś. 1.5-m reflector + 10K CCD.
(H01) Magdalena Ridge Observatory, Socorro  (N33.984833 W107.189333)  US/New
   Mexico.  Observers W. H. Ryan, E. V. Ryan. Measurer W. H. Ryan. 2.4-m
   f/8.9 reflector + CCD.
(V06) Catalina Sky Survey-Kuiper  (N32.416871 W110.732550)  US/Arizona.
   Measurers T. Beuden, V. F. Carvajal, D. Fay, J. B. Fazekas, D. C. Fuls, A.
   R. Gibbs, A. D. Grauer, H. Gröller, J. K. Hogan, R. A. Kowalski, S. M.
   Larson, G. J. Leonard, D. Rankin, R. L. Seaman, F. C. Shelly, K. W.
   Wierzchoś. 1.55-m reflector + CCD.

Orbital elements:  CEJJK82
   Perihelion 2026 Jun 8.309541 +/- 7.59 TT =  7:25:44.3 (JD 2461199.809541)
Epoch 2026 Apr 16.0 TT = JDT 2461146.5   Earth MOID: 0.0187   Ve: 0.0529
M 337.949128112 +/- 6               Ma: 0.0202                   AutoNEOCP
n   0.413638378 +/- 0.117           Peri.  232.149620 +/- 70
a   1.783975276 +/- 0.337           Node    50.811385 +/- 51
e   0.56469090 +/- 0.139            Incl.    3.858410 +/- 3.7
P   2.383/870.309d         H 25.70  G  0.15   U 11.3  SR
q 0.776580667 +/- 0.151    Q 2.791369885 +/- 1.21         (J2000 ecliptic)
From 12 observations 2026 Apr. 16 (89.9 min); mean residual 0".28
Residuals in arcseconds: 
260416 G96  .48+  .45+    260416 H01  .07-  .03-    260416 V06  .16-  .12-    
260416 G96  .52+  .06-    260416 H01  .04-  .10-    260416 V06  .15+  .14+    
260416 G96  .82-  .22-    260416 V06  .21-  .03-    260416 H01  .13+  .00     
260416 G96  .20-  .24-    260416 V06  .14-  .08+    260416 H01  .38+  .14+    

Ephemerides (geocentric):
Date (UTC) HH   RA             Dec           delta  r     elong  mag " sig PA
---- --------  ------------   ------------  ------ ------ -----  --- --------
2026 04 17 00  15 28 27.611   +06 19 10.27  .06755 1.0616 148.1 21.3  276 105
2026 04 17 01  15 29 04.006   +06 21 35.08  .06722 1.0613 147.9 21.3  319 105
2026 04 17 02  15 29 40.768   +06 24 01.13  .06688 1.0609 147.8 21.3  364 105
2026 04 17 03  15 30 17.901   +06 26 28.42  .06654 1.0606 147.7 21.3  414 105
2026 04 17 04  15 30 55.411   +06 28 56.98  .06620 1.0602 147.6 21.2  468 105
2026 04 17 05  15 31 33.304   +06 31 26.81  .06587 1.0599 147.4 21.2  525 105
2026 04 17 06  15 32 11.583   +06 33 57.93  .06553 1.0595 147.3 21.2  586 105
2026 04 17 07  15 32 50.256   +06 36 30.36  .06519 1.0591 147.2 21.2  652 105
2026 04 17 08  15 33 29.328   +06 39 04.10  .06486 1.0588 147.0 21.2  722 105
2026 04 17 09  15 34 08.803   +06 41 39.16  .06452 1.0584 146.9 21.2  797 105
2026 04 17 10  15 34 48.689   +06 44 15.58  .06419 1.0581 146.7 21.2  876 105
2026 04 17 11  15 35 28.991   +06 46 53.35  .06386 1.0577 146.6 21.2  960 105
2026 04 17 12  15 36 09.714   +06 49 32.49  .06353 1.0574 146.5 21.2 1050 105
2026 04 17 13  15 36 50.865   +06 52 13.01  .06319 1.0570 146.3 21.2 1144 105
2026 04 17 14  15 37 32.450   +06 54 54.94  .06286 1.0567 146.2 21.2 1244 105
2026 04 17 15  15 38 14.475   +06 57 38.27  .06253 1.0563 146.0 21.2 1349 105
2026 04 17 16  15 38 56.946   +07 00 23.04  .06220 1.0560 145.9 21.2 1460 105
2026 04 17 17  15 39 39.870   +07 03 09.24  .06187 1.0556 145.7 21.1 1577 105
2026 04 17 18  15 40 23.254   +07 05 56.90  .06154 1.0552 145.6 21.1 1700 105
2026 04 17 19  15 41 07.104   +07 08 46.04  .06122 1.0549 145.4 21.1 1829 105
2026 04 17 20  15 41 51.426   +07 11 36.65  .06089 1.0545 145.3 21.1 1965 105
2026 04 17 21  15 42 36.228   +07 14 28.76  .06056 1.0542 145.1 21.1 2108 105
2026 04 17 22  15 43 21.517   +07 17 22.39  .06024 1.0538 145.0 21.1 2259 105
2026 04 17 23  15 44 07.299   +07 20 17.54  .05991 1.0535 144.8 21.1 2416 104
2026 04 18 00  15 44 53.583   +07 23 14.24  .05959 1.0531 144.6 21.1 2581 104
2026 04 18 01  15 45 40.374   +07 26 12.49  .05926 1.0528 144.5 21.1 2754 104
2026 04 18 02  15 46 27.681   +07 29 12.30  .05894 1.0524 144.3 21.1 2936 104
2026 04 18 03  15 47 15.511   +07 32 13.71  .05862 1.0521 144.1 21.1 3125 104
2026 04 18 04  15 48 03.872   +07 35 16.71  .05830 1.0517 144.0 21.1 3324 104
2026 04 18 05  15 48 52.771   +07 38 21.32  .05798 1.0514 143.8 21.1 3532 104
2026 04 18 06  15 49 42.217   +07 41 27.56  .05766 1.0510 143.6 21.0 3750 104
2026 04 18 07  15 50 32.217   +07 44 35.44  .05734 1.0507 143.4 21.0 3978 104
2026 04 18 08  15 51 22.780   +07 47 44.97  .05702 1.0503 143.2 21.0 4216 104
2026 04 18 09  15 52 13.914   +07 50 56.17  .05670 1.0500 143.1 21.0 4464 104
2026 04 18 10  15 53 05.627   +07 54 09.05  .05639 1.0496 142.9 21.0 4725 104
2026 04 18 11  15 53 57.928   +07 57 23.63  .05607 1.0492 142.7 21.0 4996 104
2026 04 18 12  15 54 50.825   +08 00 39.91  .05576 1.0489 142.5 21.0 5280 104
2026 04 18 13  15 55 44.328   +08 03 57.91  .05544 1.0485 142.3 21.0 5577 104
2026 04 18 14  15 56 38.444   +08 07 17.65  .05513 1.0482 142.1 21.0 5886 104
2026 04 18 15  15 57 33.184   +08 10 39.13  .05482 1.0478 141.9 21.0 6210 104
2026 04 18 16  15 58 28.557   +08 14 02.37  .05451 1.0475 141.7 21.0 6548 104
2026 04 18 17  15 59 24.571   +08 17 27.38  .05420 1.0471 141.5 21.0 6901 104
2026 04 18 18  16 00 21.236   +08 20 54.17  .05389 1.0468 141.3 21.0 7269 104
2026 04 18 19  16 01 18.562   +08 24 22.76  .05358 1.0464 141.1 20.9 7653 104
2026 04 18 20  16 02 16.558   +08 27 53.15  .05327 1.0461 140.9 20.9 8055 104
2026 04 18 21  16 03 15.235   +08 31 25.35  .05297 1.0457 140.7 20.9 8474 104
2026 04 18 22  16 04 14.602   +08 34 59.38  .05266 1.0454 140.5 20.9 8912 104
2026 04 18 23  16 05 14.669   +08 38 35.25  .05236 1.0450 140.2 20.9 9368 103